AirNav   Air Wisconsin Up To $57,000 Bonus
 
 983 users online  

D74 Chorman Airport
Farmington, Delaware, USA

GOING TO FARMINGTON?


FAA INFORMATION EFFECTIVE 22 APRIL 2021

Location

FAA Identifier: D74
Lat/Long: 38-50-58.3750N 075-36-46.0100W
38-50.972917N 075-36.766833W
38.8495486,-75.6127806
(estimated)
Elevation: 66 ft. / 20.1 m (surveyed)
Variation: 11W (1990)
From city: 2 miles SW of FARMINGTON, DE
Time zone: UTC -4 (UTC -5 during Standard Time)
Zip code: 19950

Airport Operations

Airport use: Open to the public
Activation date: 10/1991
Control tower: no
ARTCC: WASHINGTON CENTER
FSS: MILLVILLE FLIGHT SERVICE STATION
NOTAMs facility: MIV (NOTAM-D service available)
Attendance: MON-FRI 0830-DUSK
Wind indicator: yes
Segmented circle: no
Lights: FOR LIRL RY 16/34 AND REIL RYS 16 & 34 CALL 302-349-5055 OR 645-9225.
Beacon: white-green (lighted land airport)
FOR ROTG BCN CALL 302-349-5055 OR 645-9225.

Airport Communications

CTAF: 122.9
WX ASOS at GED (15 nm SE): 118.375 (302-855-1052)

Nearby radio navigation aids

VOR radial/distance  VOR name  Freq  Var
ATRr286/18.9WATERLOO VOR/DME112.6009W
ENOr200/23.4SMYRNA VORTAC111.4009W
SBYr003/30.6SALISBURY VORTAC111.2012W

Airport Services

Airframe service: MAJOR
Powerplant service: MAJOR

Runway Information

Runway 16/34

Dimensions: 3588 x 37 ft. / 1094 x 11 m
Surface: asphalt, in excellent condition
Runway edge lights: low intensity
RUNWAY 16  RUNWAY 34
Latitude: 38-51.242333N38-50.703500N
Longitude: 075-36.921500W075-36.612167W
Traffic pattern: leftleft
Displaced threshold: no438 ft.
Markings: basic, in good conditionbasic, in good condition
Runway end identifier lights: yesyes
Obstructions: none24 ft. pole, 250 ft. from runway, 80 ft. right of centerline, 2:1 slope to clear

Airport Ownership and Management from official FAA records

Ownership: Privately-owned
Owner: ALLEN CHORMAN
30475 EAST MILL RUN
MILTON, DE 19968
Phone 302-645-9225
Manager: ALLEN CHORMAN
2057 NINE FT RD
GREENWOOD, DE 11952
Phone 302-349-5055

Airport Operational Statistics

Aircraft based on the field: 19
Single engine airplanes: 17
Multi engine airplanes: 2
    
Aircraft operations: avg 40/day *
90% transient general aviation
10% local general aviation
* for 12-month period ending 17 April 2018

Additional Remarks

AGRICULTURE SPRAYING ACTIVITY ON & INVOF ARPT.
LOADING PAD ADJACENT TO EAST SIDE RY 34.
FOR CD CTC WASHINGTON ARTCC AT 703-771-3587.

Instrument Procedures

There are no published instrument procedures at D74.

Some nearby airports with instrument procedures:

KRJD - Ridgely Airpark (14 nm NW)
KGED - Delaware Coastal Airport (15 nm SE)
KDOV - Dover Air Force Base (18 nm N)
N06 - Laurel Airport (18 nm S)
KESN - Easton Airport/Newnam Field (21 nm W)
 
Loc | Ops | Rwys | IFR | FBO | Links
Com | Nav | Svcs | Stats | Notes
Area around D74 (Chorman Airport)
 
Road maps at: MapQuest Bing Google
 
Aerial photo
WARNING: Photo may not be current or correct
Aerial photo of D74 (Chorman Airport)
Photo by Chris Connor
Photo taken 09-Jun-2012
looking west.

Do you have a better or more recent aerial photo of Chorman Airport that you would like to share? If so, please send us your photo.

 
Sectional chart

 
Airport distance calculator
Flying to Chorman Airport? Find the distance to fly.

From to D74

Sunrise and sunset
Times for 15-May-2021
 Local
(UTC-4)
 Zulu
(UTC)
Morning civil twilight05:2109:21
Sunrise05:5109:51
Sunset20:0700:07
Evening civil twilight20:3700:37

Current date and time
Zulu (UTC)  15-May-2021 23:38:00
Local (UTC-4)  15-May-2021 19:38:00
 
METAR
KGED 
15nm SE 
152254Z AUTO 13008KT 10SM CLR 21/01 A3022 RMK AO2 SLP234 T02060011
KDOV 
17nm NE 
152256Z AUTO 15006KT 10SM FEW110 19/02 A3020 RMK AO2 SLP230 T01890018 $
KESN 
21nm W 
152245Z 07006KT 10SM SCT170 23/M02 A3024
K33N 
22nm N 
152315Z AUTO 16005KT 10SM BKN110 20/M01 A3022 RMK A01
KCGE 
27nm SW 
152315Z AUTO VRB04KT 10SM FEW100 20/07 A3022 RMK A01
TAF
KDOV 
17nm NE 
151600Z 1516/1622 14006KT 9999 SKC QNH3022INS BECMG 1607/1608 21006KT 9999 SKC QNH3026INS TX24/1520Z TN08/1610Z
NOTAMs
Click for the latest NOTAMs
NOTAMs are issued by the DoD/FAA and will open in a separate window not controlled by AirNav.

 

 
 

Would you like to see your business listed on this page?

 If your business provides an interesting product or service to pilots, flight crews, aircraft, or users of the Chorman Airport, you should consider listing it here.  To start the listing process, click on the button below
 
Add a business
 

Other Pages about Chorman Airport

Update a link
 
Copyright © AirNav, LLC. All rights reserved. Privacy Policy  Contact